TimeEST,TemperatureF,Dew PointF,Humidity,Sea Level PressureIn,VisibilityMPH,Wind Direction,Wind SpeedMPH,Gust SpeedMPH,PrecipitationIn,Events,Conditions,WindDirDegrees,DateUTC
1:54 AM,30.9,26.1,82,29.97,10.0,Calm,Calm,-,N/A,,Overcast,0,2013-02-25 06:54:00
2:54 AM,30.9,25.0,79,29.99,10.0,Calm,Calm,-,N/A,,Overcast,0,2013-02-25 07:54:00
3:54 AM,30.9,25.0,79,30.00,10.0,NNW,4.6,-,N/A,,Overcast,330,2013-02-25 08:54:00
4:54 AM,30.9,24.1,76,30.01,10.0,Calm,Calm,-,N/A,,Mostly Cloudy,0,2013-02-25 09:54:00
5:54 AM,30.9,25.0,79,30.03,10.0,North,4.6,-,N/A,,Overcast,350,2013-02-25 10:54:00
7:21 AM,26.6,24.8,93,30.04,1.5,Calm,Calm,-,N/A,,Scattered Clouds,0,2013-02-25 12:21:00
7:29 AM,26.6,24.8,93,30.05,0.5,Calm,Calm,-,N/A,Fog,Light Freezing Fog,0,2013-02-25 12:29:00
7:34 AM,26.6,26.6,100,30.05,1.0,Calm,Calm,-,N/A,,Mostly Cloudy,0,2013-02-25 12:34:00
7:39 AM,28.4,26.6,93,30.05,3.0,Calm,Calm,-,N/A,,Mostly Cloudy,0,2013-02-25 12:39:00
7:54 AM,28.0,27.0,96,30.09,4.0,Calm,Calm,-,N/A,,Overcast,0,2013-02-25 12:54:00
8:54 AM,30.0,28.0,92,30.10,6.0,Calm,Calm,-,N/A,,Overcast,0,2013-02-25 13:54:00
9:54 AM,32.0,27.0,82,30.12,10.0,Calm,Calm,-,N/A,,Overcast,0,2013-02-25 14:54:00
10:54 AM,34.0,27.0,75,30.11,10.0,Calm,Calm,-,N/A,,Overcast,0,2013-02-25 15:54:00
11:54 AM,34.0,28.0,79,30.12,10.0,Calm,Calm,-,N/A,,Overcast,0,2013-02-25 16:54:00
12:54 PM,35.1,27.0,72,30.13,10.0,Calm,Calm,-,N/A,,Overcast,0,2013-02-25 17:54:00
1:54 PM,35.1,28.0,76,30.15,10.0,Calm,Calm,-,N/A,,Overcast,0,2013-02-25 18:54:00
2:54 PM,35.1,28.9,78,30.17,10.0,Calm,Calm,-,N/A,,Overcast,0,2013-02-25 19:54:00
3:54 PM,33.1,30.9,92,30.17,5.0,Calm,Calm,-,N/A,,Overcast,0,2013-02-25 20:54:00
4:38 PM,33.8,30.2,87,30.15,5.0,Calm,Calm,-,N/A,,Overcast,0,2013-02-25 21:38:00
4:54 PM,33.1,30.9,92,30.18,4.0,Calm,Calm,-,N/A,,Overcast,0,2013-02-25 21:54:00
5:18 PM,33.8,30.2,87,30.15,4.0,Calm,Calm,-,N/A,,Overcast,0,2013-02-25 22:18:00
5:26 PM,33.8,30.2,87,30.15,1.8,Calm,Calm,-,N/A,,Overcast,0,2013-02-25 22:26:00
5:30 PM,33.8,30.2,87,30.15,0.8,Calm,Calm,-,N/A,,Overcast,0,2013-02-25 22:30:00
5:51 PM,32.0,30.2,93,30.16,1.0,Calm,Calm,-,N/A,,Overcast,0,2013-02-25 22:51:00
5:54 PM,30.9,30.9,100,30.19,1.2,Calm,Calm,-,N/A,,Overcast,0,2013-02-25 22:54:00
6:12 PM,32.0,30.2,93,30.17,2.5,Calm,Calm,-,N/A,,Overcast,0,2013-02-25 23:12:00
6:22 PM,32.0,30.2,93,30.17,4.0,Calm,Calm,-,N/A,,Overcast,0,2013-02-25 23:22:00
6:34 PM,32.0,30.2,93,30.18,2.5,Calm,Calm,-,N/A,,Overcast,0,2013-02-25 23:34:00
6:39 PM,30.2,30.2,100,30.18,0.8,Calm,Calm,-,N/A,,Overcast,0,2013-02-25 23:39:00
6:50 PM,30.2,28.4,93,30.19,0.2,Calm,Calm,-,N/A,Fog,Light Freezing Fog,0,2013-02-25 23:50:00
6:54 PM,30.9,30.0,96,30.22,0.5,Calm,Calm,-,N/A,Fog,Light Freezing Fog,0,2013-02-25 23:54:00
7:06 PM,30.2,28.4,93,30.19,1.0,Calm,Calm,-,N/A,,Overcast,0,2013-02-26 00:06:00
7:13 PM,30.2,28.4,93,30.19,0.2,Calm,Calm,-,N/A,Fog,Light Freezing Fog,0,2013-02-26 00:13:00
7:33 PM,30.2,28.4,93,30.20,0.2,Calm,Calm,-,N/A,Fog,Light Freezing Fog,0,2013-02-26 00:33:00
7:43 PM,30.2,28.4,93,30.20,0.5,Calm,Calm,-,N/A,Fog,Light Freezing Fog,0,2013-02-26 00:43:00
7:54 PM,30.9,28.9,92,30.23,0.5,Calm,Calm,-,N/A,Fog,Light Freezing Fog,0,2013-02-26 00:54:00
8:04 PM,30.2,28.4,93,30.20,0.2,Calm,Calm,-,N/A,Fog,Light Freezing Fog,0,2013-02-26 01:04:00
8:54 PM,28.9,28.0,96,30.24,0.2,Calm,Calm,-,N/A,Fog,Light Freezing Fog,0,2013-02-26 01:54:00
9:54 PM,30.0,28.0,92,30.24,0.2,Calm,Calm,-,N/A,Fog,Light Freezing Fog,0,2013-02-26 02:54:00
10:54 PM,30.0,28.0,92,30.25,0.2,Calm,Calm,-,N/A,Fog,Light Freezing Fog,0,2013-02-26 03:54:00
11:52 PM,28.4,28.4,100,30.23,0.5,Calm,Calm,-,N/A,Fog,Light Freezing Fog,0,2013-02-26 04:52:00
11:54 PM,28.9,28.0,96,30.25,0.2,Calm,Calm,-,N/A,Fog,Light Freezing Fog,0,2013-02-26 04:54:00